This is the latest recevied weather packets stored in our database for station/object IV6ZJU-13. If no packets are shown the sender has not sent any weather packets the latest 10 day(s).
| Time | Temp. | Humidity | Pressure | Rain* | Wind** | Luminosity | Snow |
|---|---|---|---|---|---|---|---|
| 1777879193 | 18.33° C | 62% | 1010.1 hPa | - | - | - | - |
| 1777878286 | 17.78° C | 63% | 1010 hPa | - | - | - | - |
| 1777877393 | 17.78° C | 56% | 1009.8 hPa | - | - | - | - |
| 1777876486 | 17.22° C | 57% | 1009.8 hPa | - | - | - | - |
| 1777875593 | 17.22° C | 50% | 1009.6 hPa | - | - | - | - |
| 1777874686 | 16.67° C | 52% | 1009.5 hPa | - | - | - | - |
| 1777872885 | 16.11° C | 54% | 1009.3 hPa | - | - | - | - |
| 1777871992 | 15.56° C | 53% | 1009.4 hPa | - | - | - | - |
| 1777871085 | 15° C | 53% | 1009.3 hPa | - | - | - | - |
| 1777870192 | 14.44° C | 53% | 1009.1 hPa | - | - | - | - |
| 1777869285 | 14.44° C | 54% | 1009.1 hPa | - | - | - | - |
| 1777868384 | 13.89° C | 54% | 1009 hPa | - | - | - | - |
| 1777867491 | 13.89° C | 54% | 1008.9 hPa | - | - | - | - |
| 1777862999 | 15° C | 52% | 1008.9 hPa | - | - | - | - |
| 1777848588 | 16.11° C | 50% | 1009.2 hPa | - | - | - | - |
| 1777847684 | 16.67° C | 50% | 1009.3 hPa | - | - | - | - |
| 1777846783 | 17.22° C | 46% | 1009.2 hPa | - | - | - | - |
| 1777845888 | 16.67° C | 48% | 1009.3 hPa | - | - | - | - |
| 1777844088 | 16.67° C | 48% | 1009.2 hPa | - | - | - | - |
| 1777843188 | 17.78° C | 46% | 1009.1 hPa | - | - | - | - |
| 1777842288 | 17.22° C | 46% | 1009 hPa | - | - | - | - |
| 1777841388 | 18.33° C | 46% | 1009 hPa | - | - | - | - |
| 1777840487 | 18.33° C | 45% | 1009.1 hPa | - | - | - | - |
| 1777839589 | 18.89° C | 44% | 1009.1 hPa | - | - | - | - |
| 1777838687 | 18.89° C | 44% | 1009.2 hPa | - | - | - | - |
* Rain since midnight (hover to see other rain measurements)
** Current wind speed in m/s (hover to see current wind gust speed)